Weather History for KTTF - October, 2012

Change the Weather History Date:

Saturday, October 6, 2012

  Actual Average Record
Temperature  
Mean Temperature 44 °F -  
Max Temperature 50 °F 66 °F 89 °F (1963)
Min Temperature 37 °F 46 °F 27 °F (1935)
Degree Days  
Heating Degree Days 22    
Moisture  
Dew Point 37 °F    
Average Humidity 79    
Maximum Humidity 100    
Minimum Humidity 50    
Precipitation  
Precipitation 0.00 in - - ()
Sea Level Pressure  
Sea Level Pressure 30.02 in    
Wind  
Wind Speed 8 mph (West)    
Max Wind Speed 18 mph    
Max Gust Speed 22 mph    
Visibility 9 miles    
Events      
Averages and records for this station are not official NWS values.
T = Trace of Precipitation, MM = Missing Value Source: NWS Daily Summary

Daily Weather History Graph

Daily Weather History Graph

Search for Another Location

Airport or City:

Trip Planner

Search our weather history database for the weather conditions in past years. The results will help you decide how hot, cold, wet, or windy it might be!

Date:

Astronomy

Oct. 06, 2012 Rise Set
Actual Time 7:36 AM EDT 7:06 PM EDT
Civil Twilight 7:08 AM EDT 7:33 PM EDT
Nautical Twilight 6:36 AM EDT 8:06 PM EDT
Astronomical Twilight 6:03 AM EDT 8:38 PM EDT
Moon 11:16 PM EDT (10/6) 1:34 PM EDT (10/6)
Length of Visible Light 12h 25m
Length of Day
11h 29m
Waning Gibbous, 65% of the Moon is Illuminated
Oct 6
Waning Gibbous
Oct 8
Last Quarter
Oct 15
New
Oct 21
First Quarter
Oct 29
Full

Hourly Weather History & Observations

Time (EDT) Temp. Windchill Dew Point Humidity Pressure Visibility Wind Dir Wind Speed Gust Speed Precip Events Conditions
12:11 AM 42.8 °F 39.3 °F 42.8 °F 100% 29.97 in 10.0 mi SW 5.8 mph - N/A   Overcast
12:31 AM 42.8 °F 38.6 °F 42.8 °F 100% 29.97 in 10.0 mi WSW 6.9 mph - N/A   Overcast
12:51 AM 42.8 °F 41.1 °F 42.8 °F 100% 29.96 in 10.0 mi WSW 3.5 mph - N/A   Overcast
1:12 AM 42.8 °F 38.6 °F 42.8 °F 100% 29.96 in 10.0 mi WSW 6.9 mph - N/A   Overcast
1:32 AM 44.6 °F 39.7 °F 42.8 °F 93% 29.95 in 10.0 mi WSW 9.2 mph - N/A   Overcast
1:52 AM 44.6 °F 39.7 °F 42.8 °F 93% 29.95 in 10.0 mi WSW 9.2 mph - N/A   Overcast
2:12 AM 42.8 °F 37.5 °F 41.0 °F 93% 29.96 in 7.0 mi WSW 9.2 mph - N/A   Scattered Clouds
2:52 AM 42.8 °F 37.5 °F 41.0 °F 93% 29.96 in 7.0 mi WSW 9.2 mph - N/A   Clear
3:12 AM 41.0 °F 37.1 °F 39.2 °F 93% 29.96 in 7.0 mi WSW 5.8 mph - N/A   Clear
3:32 AM 41.0 °F 35.8 °F 39.2 °F 93% 29.96 in 7.0 mi WSW 8.1 mph - N/A   Clear
3:52 AM 41.0 °F 35.8 °F 39.2 °F 93% 29.95 in 7.0 mi WSW 8.1 mph - N/A   Clear
4:13 AM 39.2 °F 34.2 °F 39.2 °F 100% 29.95 in 7.0 mi WSW 6.9 mph - N/A   Clear
4:33 AM 39.2 °F 35.0 °F 39.2 °F 100% 29.95 in 7.0 mi WSW 5.8 mph - N/A   Clear
4:53 AM 39.2 °F 35.0 °F 37.4 °F 93% 29.95 in 7.0 mi WSW 5.8 mph - N/A   Clear
5:33 AM 39.2 °F 34.2 °F 37.4 °F 93% 29.96 in 7.0 mi WSW 6.9 mph - N/A   Clear
5:53 AM 37.4 °F 32.8 °F 37.4 °F 100% 29.96 in 7.0 mi WSW 5.8 mph - N/A   Clear
6:13 AM 37.4 °F 32.8 °F 37.4 °F 100% 29.96 in 7.0 mi WSW 5.8 mph - N/A   Clear
6:33 AM 37.4 °F 32.1 °F 37.4 °F 100% 29.96 in 7.0 mi WSW 6.9 mph - N/A   Clear
6:53 AM 37.4 °F 32.8 °F 37.4 °F 100% 29.96 in 7.0 mi WSW 5.8 mph - N/A   Clear
7:13 AM 37.4 °F 33.8 °F 37.4 °F 100% 29.97 in 7.0 mi WSW 4.6 mph - N/A   Clear
7:54 AM 37.4 °F 32.1 °F 37.4 °F 100% 29.98 in 7.0 mi WSW 6.9 mph - N/A   Scattered Clouds
8:14 AM 37.4 °F 32.1 °F 37.4 °F 100% 29.99 in 7.0 mi WSW 6.9 mph - N/A   Mostly Cloudy
8:34 AM 39.2 °F 33.0 °F 37.4 °F 93% 30.00 in 10.0 mi West 9.2 mph - N/A   Mostly Cloudy
8:54 AM 39.2 °F 34.2 °F 37.4 °F 93% 30.01 in 10.0 mi West 6.9 mph - N/A   Overcast
9:14 AM 41.0 °F 36.4 °F 37.4 °F 87% 30.01 in 10.0 mi West 6.9 mph - N/A   Mostly Cloudy
9:34 AM 42.8 °F 36.6 °F 39.2 °F 87% 30.02 in 10.0 mi West 11.5 mph - N/A   Mostly Cloudy
9:54 AM 42.8 °F 36.2 °F 39.2 °F 87% 30.03 in 10.0 mi West 12.7 mph - N/A   Overcast
10:14 AM 44.6 °F 38.4 °F 39.2 °F 81% 30.03 in 10.0 mi West 12.7 mph - N/A   Overcast
10:35 AM 46.4 °F 41.1 °F 39.2 °F 76% 30.02 in 10.0 mi West 11.5 mph 18.4 mph N/A   Mostly Cloudy
10:55 AM 46.4 °F 40.7 °F 39.2 °F 76% 30.03 in 10.0 mi West 12.7 mph 18.4 mph N/A   Scattered Clouds
11:15 AM 48.2 °F - 37.4 °F 66% 30.02 in 10.0 mi West 15.0 mph 18.4 mph N/A   Scattered Clouds
11:35 AM 46.4 °F 41.1 °F 37.4 °F 71% 30.03 in 10.0 mi West 11.5 mph 21.9 mph N/A   Overcast
11:55 AM 48.2 °F - 37.4 °F 66% 30.03 in 10.0 mi West 12.7 mph 18.4 mph N/A   Overcast
12:15 PM 46.4 °F 40.1 °F 33.8 °F 62% 30.03 in 10.0 mi West 15.0 mph 20.7 mph N/A   Overcast
12:35 PM 48.2 °F - 33.8 °F 58% 30.03 in 10.0 mi WNW 15.0 mph 19.6 mph N/A   Overcast
12:55 PM 48.2 °F - 35.6 °F 62% 30.03 in 10.0 mi West 11.5 mph 18.4 mph N/A   Overcast
1:15 PM 48.2 °F - 33.8 °F 58% 30.03 in 10.0 mi West 15.0 mph - N/A   Overcast
1:36 PM 48.2 °F - 33.8 °F 58% 30.03 in 10.0 mi West 12.7 mph 17.3 mph N/A   Overcast
1:56 PM 48.2 °F - 35.6 °F 62% 30.03 in 10.0 mi WSW 13.8 mph 18.4 mph N/A   Overcast
2:16 PM 50.0 °F - 33.8 °F 54% 30.03 in 10.0 mi West 17.3 mph - N/A   Overcast
2:31 PM 50.0 °F - 33.8 °F 54% 30.03 in 10.0 mi West 18.4 mph 21.9 mph N/A   Overcast
2:51 PM 48.2 °F - 33.8 °F 58% 30.03 in 10.0 mi WNW 12.7 mph 18.4 mph N/A   Overcast
3:11 PM 48.2 °F - 33.8 °F 58% 30.04 in 10.0 mi WNW 16.1 mph 19.6 mph N/A   Overcast
3:31 PM 48.2 °F - 33.8 °F 58% 30.04 in 10.0 mi West 11.5 mph 21.9 mph N/A   Overcast
3:51 PM 50.0 °F - 32.0 °F 50% 30.04 in 10.0 mi WNW 15.0 mph - N/A   Overcast
4:11 PM 48.2 °F - 33.8 °F 58% 30.04 in 10.0 mi West 9.2 mph 16.1 mph N/A   Overcast
4:31 PM 48.2 °F - 33.8 °F 58% 30.04 in 10.0 mi West 10.4 mph - N/A   Overcast
4:52 PM 48.2 °F - 33.8 °F 58% 30.04 in 10.0 mi West 12.7 mph 16.1 mph N/A   Overcast
5:12 PM 48.2 °F - 33.8 °F 58% 30.04 in 10.0 mi West 10.4 mph - N/A   Overcast
5:32 PM 48.2 °F - 33.8 °F 58% 30.05 in 10.0 mi West 10.4 mph - N/A   Overcast
5:52 PM 46.4 °F 42.4 °F 33.8 °F 62% 30.05 in 10.0 mi West 8.1 mph - N/A   Overcast
6:12 PM 46.4 °F 41.9 °F 35.6 °F 66% 30.07 in 10.0 mi West 9.2 mph - N/A   Overcast
6:32 PM 46.4 °F 42.9 °F 35.6 °F 66% 30.07 in 10.0 mi WNW 6.9 mph - N/A   Overcast
7:12 PM 46.4 °F 43.5 °F 37.4 °F 71% 30.08 in 10.0 mi WNW 5.8 mph - N/A   Overcast
7:32 PM 46.4 °F 44.3 °F 37.4 °F 71% 30.08 in 10.0 mi WNW 4.6 mph - N/A   Overcast
7:52 PM 46.4 °F 43.5 °F 37.4 °F 71% 30.09 in 10.0 mi West 5.8 mph - N/A   Overcast
8:13 PM 46.4 °F 41.5 °F 37.4 °F 71% 30.09 in 10.0 mi West 10.4 mph - N/A   Overcast
8:33 PM 44.6 °F 40.7 °F 37.4 °F 76% 30.10 in 10.0 mi West 6.9 mph - N/A   Overcast
8:53 PM 44.6 °F 41.4 °F 37.4 °F 76% 30.10 in 10.0 mi WSW 5.8 mph - N/A   Overcast
9:13 PM 44.6 °F 43.1 °F 37.4 °F 76% 30.10 in 10.0 mi WSW 3.5 mph - N/A   Overcast
9:33 PM 44.6 °F 41.4 °F 39.2 °F 81% 30.10 in 10.0 mi WSW 5.8 mph - N/A   Overcast
9:53 PM 42.8 °F 38.6 °F 37.4 °F 81% 30.10 in 10.0 mi WSW 6.9 mph - N/A   Overcast
10:13 PM 42.8 °F 38.6 °F 37.4 °F 81% 30.11 in 10.0 mi West 6.9 mph - N/A   Overcast
10:33 PM 42.8 °F 39.3 °F 37.4 °F 81% 30.11 in 10.0 mi West 5.8 mph - N/A   Overcast
10:53 PM 42.8 °F 39.3 °F 37.4 °F 81% 30.11 in 10.0 mi West 5.8 mph - N/A   Overcast
11:13 PM 42.8 °F 38.6 °F 37.4 °F 81% 30.11 in 10.0 mi West 6.9 mph - N/A   Overcast
11:34 PM 42.8 °F 39.3 °F 37.4 °F 81% 30.11 in 10.0 mi West 5.8 mph - N/A   Overcast
11:54 PM 42.8 °F 38.6 °F 37.4 °F 81% 30.11 in 10.0 mi West 6.9 mph - N/A   Overcast